User: anonymous   Login
Location: Belfast
(54.5830°N, 5.9330°W)
Time: 08:27:29
(UTC+00:00)
Language:

Coronas F rocket - Orbit

View from above orbital plane
View from above orbital plane
View from above satellite
View from above satellite

Ground track
Ground track

The orbit data is extracted from the following two-line orbital elements,

1 26874U 01032B   15058.54729032  .00015318  00000-0  18453-3 0  9996
2 26874 082.4673 074.3353 0013034 180.9446 179.1788 15.60534752761000
Epoch (UTC): 27 February 2015 13:08:05
Eccentricity: 0.0013034
inclination: 82.4673°
perigee height: 377 km
apogee height: 395 km
right ascension of ascending node: 74.3353°
argument of perigee: 180.9446°
revolutions per day: 15.60534752
mean anomaly at epoch: 179.1788°
orbit number at epoch: 76100

The dashed part of the orbit path shows where the satellite is in the earth's shadow,  

DLR